Regional Weather Roundup
Issued by NWS

Home | Current Version | Previous Version | Text Only | Print | Product List | Glossary Off
Versions: 1 2 3 4 5 6 7 8 9 10 11 12 13 14 15 16 17 18 19 20 21 22 23 24 25 26 27 28 29 30 31 32 33 34 35 36 37 38 39 40 41 42 43 44 45 46 47 48 49 50

000
ASUS43 KMPX 301201
RWRMN
WEATHER ROUNDUP FOR MINNESOTA
NATIONAL WEATHER SERVICE TWIN CITIES/CHANHASSEN MN
700 AM CDT SUN AUG 30 2015


NOTE: "FAIR" INDICATES FEW OR NO CLOUDS BELOW 12,000 FEET WITH NO
SIGNIFICANT WEATHER AND/OR OBSTRUCTIONS TO VISIBILITY. N/A MEANS
CURRENT SKY AND/OR WEATHER CONDITIONS ARE NOT AVAILABLE.

MNZ060>063-068>070-301300-
   Twin Cities Metro

CITY           SKY/WX    TMP DP  RH WIND       PRES   REMARKS
TWIN CITIES    CLOUDY    63  60  90 S8        30.00R
6HR MIN TEMP:  63; 6HR MAX TEMP:  65;

ST PAUL        CLOUDY    63  62  97 S6        30.01R
CRYSTAL        CLOUDY    63  60  90 S10       29.98R
BLAINE         CLOUDY    64  63  94 S9        29.99R
LAKEVILLE      CLOUDY    59  59 100 S3        30.01R FOG
EDEN PRAIRIE   CLOUDY    62  60  93 S9        29.99R FOG
6HR MIN TEMP:  61; 6HR MAX TEMP:  64;

SOUTH ST PAUL  CLOUDY    64  61  92 S6        30.00S
LAKE ELMO      CLOUDY    63  63 100 S8        30.02R FOG
$$
MNZ001>005-007-008-013>017-022>024-027-028-301300-
   Northwest Minnesota

CITY           SKY/WX    TMP DP  RH WIND       PRES   REMARKS
BEMIDJI        PTCLDY    62  61  97 S7        29.89S
HALLOCK        MOCLDY    66  64  94 S12       29.77R
ROSEAU         PTCLDY    66  61  82 S10       29.80S
WARROAD        PTCLDY    64  61  88 SW7       29.80S
THIEF RVR FALL PTCLDY   N/A N/A N/A S7        29.82R
CROOKSTON      PTCLDY    64  63  94 S15       29.82R
FOSSTON        CLEAR     59  57  94 S5        29.86R
DETROIT LAKES  CLEAR     63  61  94 S8        29.89S
MOORHEAD       CLEAR     64  63  94 S12       29.85S
PARK RAPIDS    CLOUDY    63  61  93 S9        29.91R
MAHNOMEN       FAIR      64  62  93 S5        29.86R
$$
MNZ006-009>011-018-025>026-301300-
   North Central Minnesota

CITY           SKY/WX    TMP DP  RH WIND       PRES   REMARKS
BAUDETTE       PTCLDY    64  62  93 S12       29.81S
FLAG ISLAND    PTCLDY    64  64 100 S5        29.79R
INTL FALLS     CLOUDY    63  62  97 SW5       29.85R
6HR MIN TEMP:  62; 6HR MAX TEMP:  65;

WASKISH        CLEAR     64  63  94 S6        29.86R
BIG FORK       CLOUDY    64  61  88 S9G16     29.90S
LONGVILLE      CLOUDY    63  61  94 S6        29.92S
GRAND RAPIDS     N/A     63  57  82 S8        29.93S
CRANE LAKE     CLOUDY    61  61 100 S3        29.90R
ORR            CLOUDY    63  59  88 S8        29.88R
COOK           CLOUDY    61  61 100 S5        29.92S
WALKER         CLOUDY    63  61  95 S8        29.91R
$$
MNZ012-019>021-037-301300-
   Northeast Minnesota

CITY           SKY/WX    TMP DP  RH WIND       PRES   REMARKS
DULUTH         CLOUDY    63  61  93 SW13      29.96R
6HR MIN TEMP:  62; 6HR MAX TEMP:  63;

ELY            CLOUDY    61  59  94 SW9G16    29.92S
HIBBING        CLOUDY    61  59  93 S6        29.94R
EVELETH        CLOUDY    59  59 100 SW6       29.95R FOG
DULUTH HARBOR  CLOUDY    66  63  88 SW10      29.95R
TWO HARBORS    CLOUDY    66  61  82 SW8       29.93S
SILVER BAY     CLOUDY    64  61  88 S6        29.93R
GRAND MARAIS     N/A     51  50  96 CALM      29.94R
G MARAIS ARPRT FOG       59  55  88 S8        29.96R VSB 3/4
$$
MNZ029>031-032-039>041-046>048-054>057-064-301300-
   West Central Minnesota

CITY           SKY/WX    TMP DP  RH WIND       PRES   REMARKS
FERGUS FALLS   CLEAR     63  63 100 S10       29.89R
WHEATON        CLEAR     57  57 100 SE10      29.90R FOG
MORRIS         MOCLDY    61  61 100 SE12      29.91R FOG
ALEXANDRIA     MOCLDY    62  61  96 S13       29.95R FOG
ELBOW LAKE     FAIR      60  60  99 S12       29.90R
WADENA         PTCLDY    57  57 100 SE5       29.92R FOG
GLENWOOD       CLOUDY    63  61  94 S15       29.95R FOG
APPLETON       CLEAR     63  59  88 S8        29.92R FOG
BENSON         PTCLDY    61  57  88 S9        29.94R FOG
ORTONVILLE     CLEAR     61  57  88 SE8       29.90S
MADISON        CLEAR     61  59  94 S8        29.92R FOG
WILLMAR        CLOUDY    63  63 100 S3        29.97S FOG
$$
MNZ033>034-036-042>043-049>051-058-059-301300-
   Central Minnesota

CITY           SKY/WX    TMP DP  RH WIND       PRES   REMARKS
ST CLOUD       CLOUDY    59  59 100 S10       29.96S
6HR MIN TEMP:  57; 6HR MAX TEMP:  60;

SAUK CENTRE    CLOUDY    61  60  98 S7        29.96R FOG
PAYNESVILLE    CLOUDY    60  60  98 SE8       29.97R
AITKIN         PTCLDY    63  57  82 S5        29.93S
PINE RIVER     CLOUDY    63  63 100 S3        29.97R
BRAINERD       CLOUDY    61  60  97 S7        29.94R
STAPLES        CLOUDY    61  59  94 S6        29.93R
LONG PRAIRIE   CLOUDY    61  59  94 S10       29.95R FOG
LITTLE FALLS   CLOUDY    61  59  94 S6        29.95R FOG
LITCHFIELD     CLOUDY    63  63 100 CALM      29.98S
BUFFALO        CLOUDY    61  59  91 S6        30.00R FOG
MAPLE LAKE     CLOUDY    61  60  98 S3        29.99S
$$
MNZ037-044-045-052-053-301300-
   East Central Minnesota

CITY           SKY/WX    TMP DP  RH WIND       PRES   REMARKS
PRINCETON      CLOUDY    63  61  94 S6        29.98R
MORA           CLOUDY    61  59  94 S7        29.99R
CAMBRIDGE      CLOUDY    64  55  72 S7        29.96S HAZE
RUSH CITY      CLOUDY    63  62  96 S7        29.98S
MOOSE LAKE     CLOUDY    63  61  94 S8        29.95R
HINCKLEY       CLOUDY    63  63 100 S10       29.98R
CLOQUET        CLOUDY    64  61  88 S9        29.96R
MCGREGOR       PTCLDY    63  61  94 S5        29.95S
$$
MNZ071>073-080-081-089-090-097-098-301300-
   Southwest Minnesota

CITY           SKY/WX    TMP DP  RH WIND       PRES   REMARKS
MONTEVIDEO     CLEAR     61  61 100 S8        29.96R
GRANITE FALLS  CLEAR     60  59  99 SE7       29.98R
CANBY          CLEAR     61  59  92 SE6       29.94R FOG
MARSHALL       PTCLDY    61  55  82 S9        29.97R
REDWOOD FALLS  CLOUDY    62  60  93 S12       29.98R
OLIVIA         CLOUDY    59  55  88 S9        29.97S
PIPESTONE      FOG       63  61  94 S10       30.00R VSB 1
WINDOM         CLOUDY    63  59  88 S13       30.01R
WORTHINGTON    CLOUDY    61  57  88 S12       30.02S
JACKSON        CLOUDY    61  61 100 SW12      30.02F
TRACY          PTCLDY    62  60  94 S13G21    29.97S
SLAYTON        CLOUDY    60  60  99 S12G17    30.01R
$$
MNZ065>067-074>077-082>085-091>093-301300-
   South Central Minnesota

CITY           SKY/WX    TMP DP  RH WIND       PRES   REMARKS
MANKATO        CLOUDY    61  57  88 SW7       30.02R
NEW ULM        CLOUDY    61  61 100 S5        30.01R
ST JAMES       CLOUDY    63  61  94 S7        30.02S
FAIRMONT       CLOUDY    61  55  82 S10       30.01S
GLENCOE        CLOUDY    61  61  99 S6        29.99R
FARIBAULT      CLOUDY    61  61 100 S7        30.03R
OWATONNA       CLEAR     61  57  88 S5        30.04R FOG
WASECA         CLOUDY    59  55  88 S5        30.04R FOG
ALBERT LEA     CLEAR     57  57 100 S3        30.04R FOG
$$
MNZ078>079-086>088-094>096-301300-
   Southeast Minnesota

CITY           SKY/WX    TMP DP  RH WIND       PRES   REMARKS
ROCHESTER      MOCLDY    56  55  97 SE3       30.06R FOG
6HR MIN TEMP:  56; 6HR MAX TEMP:  59;

RED WING       CLOUDY    63  61  94 S5        30.02S FOG
STANTON        PTCLDY    62  60  93 CALM      30.00F
DODGE CENTER   CLOUDY    61  61 100 SW13      30.04S FOG
WINONA         FOG       59  59 100 CALM      30.05S VSB 1/4
AUSTIN         DRZL/FOG  61  59  94 S5        30.05R VSB 1/4
PRESTON          N/A     56  55  96 S3        30.07R FOG
$$
ABBREVIATIONS USED IN REMARKS
   TC - TEMPERATURES IN CELSIUS
  WCI - WIND CHILL INDEX
   HX - HEAT INDEX
  VSB - VISIBILITY
$$



USA.gov is the U.S. government's official web portal to all federal, state and local government web resources and services.